owner,sensor,date,latitude,longitude,sea_surface_height_above_sea_level,qcFlag 
DISL,ioos:station:DISL:PPTA:1,2017-12-01T00:30:00Z,30.2791,-87.5561,1.414,1111122 
DISL,ioos:station:DISL:PPTA:1,2017-12-01T01:30:00Z,30.2791,-87.5561,1.406,1111122 
DISL,ioos:station:DISL:PPTA:1,2017-12-01T02:30:00Z,30.2791,-87.5561,1.402,1111122 
DISL,ioos:station:DISL:PPTA:1,2017-12-01T03:30:00Z,30.2791,-87.5561,1.373,1111122 
DISL,ioos:station:DISL:PPTA:1,2017-12-01T04:30:00Z,30.2791,-87.5561,1.322,1111122 
DISL,ioos:station:DISL:PPTA:1,2017-12-01T05:30:00Z,30.2791,-87.5561,1.293,1111122 
DISL,ioos:station:DISL:PPTA:1,2017-12-01T06:30:00Z,30.2791,-87.5561,1.27,1111122 
DISL,ioos:station:DISL:PPTA:1,2017-12-01T07:30:00Z,30.2791,-87.5561,1.243,1111122 
DISL,ioos:station:DISL:PPTA:1,2017-12-01T08:30:00Z,30.2791,-87.5561,1.21,1111122 
DISL,ioos:station:DISL:PPTA:1,2017-12-01T09:30:00Z,30.2791,-87.5561,1.191,1111122 
DISL,ioos:station:DISL:PPTA:1,2017-12-01T10:30:00Z,30.2791,-87.5561,1.163,1111122 
DISL,ioos:station:DISL:PPTA:1,2017-12-01T11:30:00Z,30.2791,-87.5561,1.163,1111122 
DISL,ioos:station:DISL:PPTA:1,2017-12-01T12:30:00Z,30.2791,-87.5561,1.162,1111122 
DISL,ioos:station:DISL:PPTA:1,2017-12-01T13:30:00Z,30.2791,-87.5561,1.171,1111122 
DISL,ioos:station:DISL:PPTA:1,2017-12-01T14:30:00Z,30.2791,-87.5561,1.184,1111122 
DISL,ioos:station:DISL:PPTA:1,2017-12-01T15:30:00Z,30.2791,-87.5561,1.182,1111122 
DISL,ioos:station:DISL:PPTA:1,2017-12-01T16:30:00Z,30.2791,-87.5561,1.182,1111122 
DISL,ioos:station:DISL:PPTA:1,2017-12-01T17:30:00Z,30.2791,-87.5561,1.175,1111122 
DISL,ioos:station:DISL:PPTA:1,2017-12-01T18:30:00Z,30.2791,-87.5561,1.202,1111122 
DISL,ioos:station:DISL:PPTA:1,2017-12-01T19:30:00Z,30.2791,-87.5561,1.236,1111122 
DISL,ioos:station:DISL:PPTA:1,2017-12-01T20:30:00Z,30.2791,-87.5561,1.269,1111122 
DISL,ioos:station:DISL:PPTA:1,2017-12-01T21:30:00Z,30.2791,-87.5561,1.31,1111122 
DISL,ioos:station:DISL:PPTA:1,2017-12-01T22:30:00Z,30.2791,-87.5561,1.343,1111122 
DISL,ioos:station:DISL:PPTA:1,2017-12-01T23:30:00Z,30.2791,-87.5561,1.369,1111122 
DISL,ioos:station:DISL:PPTA:1,2017-12-02T00:30:00Z,30.2791,-87.5561,1.397,1111122 
DISL,ioos:station:DISL:PPTA:1,2017-12-02T01:30:00Z,30.2791,-87.5561,1.407,1111122 
DISL,ioos:station:DISL:PPTA:1,2017-12-02T02:30:00Z,30.2791,-87.5561,1.428,1111122 
DISL,ioos:station:DISL:PPTA:1,2017-12-02T03:30:00Z,30.2791,-87.5561,1.417,1111122 
DISL,ioos:station:DISL:PPTA:1,2017-12-02T04:30:00Z,30.2791,-87.5561,1.383,1111122 
DISL,ioos:station:DISL:PPTA:1,2017-12-02T05:30:00Z,30.2791,-87.5561,1.332,1111122 
DISL,ioos:station:DISL:PPTA:1,2017-12-02T06:30:00Z,30.2791,-87.5561,1.291,1111122 
DISL,ioos:station:DISL:PPTA:1,2017-12-02T07:30:00Z,30.2791,-87.5561,1.265,1111122 
DISL,ioos:station:DISL:PPTA:1,2017-12-02T08:30:00Z,30.2791,-87.5561,1.23,1111122 
DISL,ioos:station:DISL:PPTA:1,2017-12-02T09:30:00Z,30.2791,-87.5561,1.197,1111122 
DISL,ioos:station:DISL:PPTA:1,2017-12-02T10:30:00Z,30.2791,-87.5561,1.173,1111122 
DISL,ioos:station:DISL:PPTA:1,2017-12-02T11:30:00Z,30.2791,-87.5561,1.155,1111122 
DISL,ioos:station:DISL:PPTA:1,2017-12-02T12:30:00Z,30.2791,-87.5561,1.143,1111122 
DISL,ioos:station:DISL:PPTA:1,2017-12-02T13:30:00Z,30.2791,-87.5561,1.147,1111122 
DISL,ioos:station:DISL:PPTA:1,2017-12-02T14:30:00Z,30.2791,-87.5561,1.169,1111122 
DISL,ioos:station:DISL:PPTA:1,2017-12-02T15:30:00Z,30.2791,-87.5561,1.188,1111122 
DISL,ioos:station:DISL:PPTA:1,2017-12-02T16:30:00Z,30.2791,-87.5561,1.186,1111122 
DISL,ioos:station:DISL:PPTA:1,2017-12-02T17:30:00Z,30.2791,-87.5561,1.187,1111122 
DISL,ioos:station:DISL:PPTA:1,2017-12-02T18:30:00Z,30.2791,-87.5561,1.206,1111122 
DISL,ioos:station:DISL:PPTA:1,2017-12-02T19:30:00Z,30.2791,-87.5561,1.232,1111122 
DISL,ioos:station:DISL:PPTA:1,2017-12-02T20:30:00Z,30.2791,-87.5561,1.262,1111122 
DISL,ioos:station:DISL:PPTA:1,2017-12-02T21:30:00Z,30.2791,-87.5561,1.308,1111122 
DISL,ioos:station:DISL:PPTA:1,2017-12-02T22:30:00Z,30.2791,-87.5561,1.351,1111122 
DISL,ioos:station:DISL:PPTA:1,2017-12-02T23:30:00Z,30.2791,-87.5561,1.385,1111122 
DISL,ioos:station:DISL:PPTA:1,2017-12-03T00:30:00Z,30.2791,-87.5561,1.415,1111122 
DISL,ioos:station:DISL:PPTA:1,2017-12-03T01:30:00Z,30.2791,-87.5561,1.426,1111122 
DISL,ioos:station:DISL:PPTA:1,2017-12-03T02:30:00Z,30.2791,-87.5561,1.445,1111122 
DISL,ioos:station:DISL:PPTA:1,2017-12-03T03:30:00Z,30.2791,-87.5561,1.444,1111122 
DISL,ioos:station:DISL:PPTA:1,2017-12-03T04:30:00Z,30.2791,-87.5561,1.432,1111122 
DISL,ioos:station:DISL:PPTA:1,2017-12-03T05:30:00Z,30.2791,-87.5561,1.377,1111122 
DISL,ioos:station:DISL:PPTA:1,2017-12-03T06:30:00Z,30.2791,-87.5561,1.326,1111122 
DISL,ioos:station:DISL:PPTA:1,2017-12-03T07:30:00Z,30.2791,-87.5561,1.287,1111122 
DISL,ioos:station:DISL:PPTA:1,2017-12-03T08:30:00Z,30.2791,-87.5561,1.257,1111122 
DISL,ioos:station:DISL:PPTA:1,2017-12-03T09:30:00Z,30.2791,-87.5561,1.216,1111122 
DISL,ioos:station:DISL:PPTA:1,2017-12-03T10:30:00Z,30.2791,-87.5561,1.187,1111122 
DISL,ioos:station:DISL:PPTA:1,2017-12-03T11:30:00Z,30.2791,-87.5561,1.171,1111122 
DISL,ioos:station:DISL:PPTA:1,2017-12-03T12:30:00Z,30.2791,-87.5561,1.154,1111122 
DISL,ioos:station:DISL:PPTA:1,2017-12-03T13:30:00Z,30.2791,-87.5561,1.137,1111122 
DISL,ioos:station:DISL:PPTA:1,2017-12-03T14:30:00Z,30.2791,-87.5561,1.146,1111122 
DISL,ioos:station:DISL:PPTA:1,2017-12-03T15:30:00Z,30.2791,-87.5561,1.181,1111122 
DISL,ioos:station:DISL:PPTA:1,2017-12-03T16:30:00Z,30.2791,-87.5561,1.197,1111122 
DISL,ioos:station:DISL:PPTA:1,2017-12-03T17:30:00Z,30.2791,-87.5561,1.218,1111122 
DISL,ioos:station:DISL:PPTA:1,2017-12-03T18:30:00Z,30.2791,-87.5561,1.224,1111122 
DISL,ioos:station:DISL:PPTA:1,2017-12-03T19:30:00Z,30.2791,-87.5561,1.274,1111122 
DISL,ioos:station:DISL:PPTA:1,2017-12-03T20:30:00Z,30.2791,-87.5561,1.28,1111122 
DISL,ioos:station:DISL:PPTA:1,2017-12-03T21:30:00Z,30.2791,-87.5561,1.333,1111122 
DISL,ioos:station:DISL:PPTA:1,2017-12-03T22:30:00Z,30.2791,-87.5561,1.382,1111122 
DISL,ioos:station:DISL:PPTA:1,2017-12-03T23:30:00Z,30.2791,-87.5561,1.421,1111122 
DISL,ioos:station:DISL:PPTA:1,2017-12-04T00:30:00Z,30.2791,-87.5561,1.45,1111122 
DISL,ioos:station:DISL:PPTA:1,2017-12-04T01:30:00Z,30.2791,-87.5561,1.484,1111122 
DISL,ioos:station:DISL:PPTA:1,2017-12-04T02:00:00Z,30.2791,-87.5561,1.482,1111122 
DISL,ioos:station:DISL:PPTA:1,2017-12-04T03:30:00Z,30.2791,-87.5561,1.494,1111122 
DISL,ioos:station:DISL:PPTA:1,2017-12-04T04:30:00Z,30.2791,-87.5561,1.48,1111122 
DISL,ioos:station:DISL:PPTA:1,2017-12-04T05:30:00Z,30.2791,-87.5561,1.478,1111122 
DISL,ioos:station:DISL:PPTA:1,2017-12-04T06:30:00Z,30.2791,-87.5561,1.413,1111122 
DISL,ioos:station:DISL:PPTA:1,2017-12-04T07:30:00Z,30.2791,-87.5561,1.36,1111122 
DISL,ioos:station:DISL:PPTA:1,2017-12-04T08:30:00Z,30.2791,-87.5561,1.33,1111122 
DISL,ioos:station:DISL:PPTA:1,2017-12-04T09:00:00Z,30.2791,-87.5561,1.301,1111122 
DISL,ioos:station:DISL:PPTA:1,2017-12-04T10:30:00Z,30.2791,-87.5561,1.257,1111122 
DISL,ioos:station:DISL:PPTA:1,2017-12-04T11:30:00Z,30.2791,-87.5561,1.224,1111122 
DISL,ioos:station:DISL:PPTA:1,2017-12-04T12:30:00Z,30.2791,-87.5561,1.206,1111122 
DISL,ioos:station:DISL:PPTA:1,2017-12-04T13:30:00Z,30.2791,-87.5561,1.186,1111122 
DISL,ioos:station:DISL:PPTA:1,2017-12-04T14:30:00Z,30.2791,-87.5561,1.162,1111122 
DISL,ioos:station:DISL:PPTA:1,2017-12-04T15:30:00Z,30.2791,-87.5561,1.19,1111122 
DISL,ioos:station:DISL:PPTA:1,2017-12-04T16:30:00Z,30.2791,-87.5561,1.218,1111122 
DISL,ioos:station:DISL:PPTA:1,2017-12-04T17:30:00Z,30.2791,-87.5561,1.245,1111122 
DISL,ioos:station:DISL:PPTA:1,2017-12-04T18:30:00Z,30.2791,-87.5561,1.262,1111122 
DISL,ioos:station:DISL:PPTA:1,2017-12-04T19:30:00Z,30.2791,-87.5561,1.269,1111122 
DISL,ioos:station:DISL:PPTA:1,2017-12-04T20:30:00Z,30.2791,-87.5561,1.315,1111122 
DISL,ioos:station:DISL:PPTA:1,2017-12-04T21:30:00Z,30.2791,-87.5561,1.335,1111122 
DISL,ioos:station:DISL:PPTA:1,2017-12-04T22:30:00Z,30.2791,-87.5561,1.396,1111122 
DISL,ioos:station:DISL:PPTA:1,2017-12-04T23:30:00Z,30.2791,-87.5561,1.454,1111122 
DISL,ioos:station:DISL:PPTA:1,2017-12-05T00:30:00Z,30.2791,-87.5561,1.505,1111122 
DISL,ioos:station:DISL:PPTA:1,2017-12-05T01:30:00Z,30.2791,-87.5561,1.552,1111122 
DISL,ioos:station:DISL:PPTA:1,2017-12-05T02:30:00Z,30.2791,-87.5561,1.561,1111122 
DISL,ioos:station:DISL:PPTA:1,2017-12-05T03:30:00Z,30.2791,-87.5561,1.568,1111122 
DISL,ioos:station:DISL:PPTA:1,2017-12-05T04:30:00Z,30.2791,-87.5561,1.591,1111122 
DISL,ioos:station:DISL:PPTA:1,2017-12-05T05:30:00Z,30.2791,-87.5561,1.576,1111122 
DISL,ioos:station:DISL:PPTA:1,2017-12-05T06:30:00Z,30.2791,-87.5561,1.545,1111122 
DISL,ioos:station:DISL:PPTA:1,2017-12-05T07:30:00Z,30.2791,-87.5561,1.486,1111122 
DISL,ioos:station:DISL:PPTA:1,2017-12-05T08:30:00Z,30.2791,-87.5561,1.445,1111122 
DISL,ioos:station:DISL:PPTA:1,2017-12-05T09:30:00Z,30.2791,-87.5561,1.39,1111122 
DISL,ioos:station:DISL:PPTA:1,2017-12-05T10:30:00Z,30.2791,-87.5561,1.345,1111122 
DISL,ioos:station:DISL:PPTA:1,2017-12-05T11:30:00Z,30.2791,-87.5561,1.327,1111122 
DISL,ioos:station:DISL:PPTA:1,2017-12-05T12:30:00Z,30.2791,-87.5561,1.29,1111122 
DISL,ioos:station:DISL:PPTA:1,2017-12-05T13:30:00Z,30.2791,-87.5561,1.257,1111122 
DISL,ioos:station:DISL:PPTA:1,2017-12-05T14:30:00Z,30.2791,-87.5561,1.243,1111122 
DISL,ioos:station:DISL:PPTA:1,2017-12-05T15:30:00Z,30.2791,-87.5561,1.215,1111122 
DISL,ioos:station:DISL:PPTA:1,2017-12-05T16:30:00Z,30.2791,-87.5561,1.223,1111122 
DISL,ioos:station:DISL:PPTA:1,2017-12-05T17:30:00Z,30.2791,-87.5561,1.222,1111122 
DISL,ioos:station:DISL:PPTA:1,2017-12-05T18:30:00Z,30.2791,-87.5561,1.266,1111122 
DISL,ioos:station:DISL:PPTA:1,2017-12-05T19:30:00Z,30.2791,-87.5561,1.262,1111122 
DISL,ioos:station:DISL:PPTA:1,2017-12-05T20:30:00Z,30.2791,-87.5561,1.282,1111122 
DISL,ioos:station:DISL:PPTA:1,2017-12-05T21:30:00Z,30.2791,-87.5561,1.303,1111122 
DISL,ioos:station:DISL:PPTA:1,2017-12-05T22:30:00Z,30.2791,-87.5561,1.344,1111122 
DISL,ioos:station:DISL:PPTA:1,2017-12-05T23:30:00Z,30.2791,-87.5561,1.392,1111122 
DISL,ioos:station:DISL:PPTA:1,2017-12-06T00:30:00Z,30.2791,-87.5561,1.446,1111122 
DISL,ioos:station:DISL:PPTA:1,2017-12-06T01:30:00Z,30.2791,-87.5561,1.51,1111122 
DISL,ioos:station:DISL:PPTA:1,2017-12-06T02:30:00Z,30.2791,-87.5561,1.541,1111122 
DISL,ioos:station:DISL:PPTA:1,2017-12-06T03:30:00Z,30.2791,-87.5561,1.522,1111122 
DISL,ioos:station:DISL:PPTA:1,2017-12-06T04:30:00Z,30.2791,-87.5561,1.543,1111122 
DISL,ioos:station:DISL:PPTA:1,2017-12-06T05:30:00Z,30.2791,-87.5561,1.553,1111122 
DISL,ioos:station:DISL:PPTA:1,2017-12-06T06:30:00Z,30.2791,-87.5561,1.557,1111122 
DISL,ioos:station:DISL:PPTA:1,2017-12-06T07:30:00Z,30.2791,-87.5561,1.502,1111122 
DISL,ioos:station:DISL:PPTA:1,2017-12-06T08:30:00Z,30.2791,-87.5561,1.43,1111122 
DISL,ioos:station:DISL:PPTA:1,2017-12-06T09:30:00Z,30.2791,-87.5561,1.401,1111122 
DISL,ioos:station:DISL:PPTA:1,2017-12-06T10:30:00Z,30.2791,-87.5561,1.344,1111122 
DISL,ioos:station:DISL:PPTA:1,2017-12-06T11:30:00Z,30.2791,-87.5561,1.294,1111122 
DISL,ioos:station:DISL:PPTA:1,2017-12-06T12:30:00Z,30.2791,-87.5561,1.283,1111122 
DISL,ioos:station:DISL:PPTA:1,2017-12-06T13:30:00Z,30.2791,-87.5561,1.237,1111122 
DISL,ioos:station:DISL:PPTA:1,2017-12-06T14:30:00Z,30.2791,-87.5561,1.217,1111122 
DISL,ioos:station:DISL:PPTA:1,2017-12-06T15:30:00Z,30.2791,-87.5561,1.164,1111122 
DISL,ioos:station:DISL:PPTA:1,2017-12-06T16:30:00Z,30.2791,-87.5561,1.147,1111122 
DISL,ioos:station:DISL:PPTA:1,2017-12-06T17:30:00Z,30.2791,-87.5561,1.124,1111122 
DISL,ioos:station:DISL:PPTA:1,2017-12-06T18:30:00Z,30.2791,-87.5561,1.123,1111122 
DISL,ioos:station:DISL:PPTA:1,2017-12-06T19:30:00Z,30.2791,-87.5561,1.161,1111122 
DISL,ioos:station:DISL:PPTA:1,2017-12-06T20:30:00Z,30.2791,-87.5561,1.201,1111122 
DISL,ioos:station:DISL:PPTA:1,2017-12-06T21:30:00Z,30.2791,-87.5561,1.254,1111122 
DISL,ioos:station:DISL:PPTA:1,2017-12-06T22:30:00Z,30.2791,-87.5561,1.228,1111122 
DISL,ioos:station:DISL:PPTA:1,2017-12-06T23:30:00Z,30.2791,-87.5561,1.257,1111122 
DISL,ioos:station:DISL:PPTA:1,2017-12-07T00:30:00Z,30.2791,-87.5561,1.28,1111122 
DISL,ioos:station:DISL:PPTA:1,2017-12-07T01:30:00Z,30.2791,-87.5561,1.362,1111122 
DISL,ioos:station:DISL:PPTA:1,2017-12-07T02:30:00Z,30.2791,-87.5561,1.389,1111122 
DISL,ioos:station:DISL:PPTA:1,2017-12-07T03:30:00Z,30.2791,-87.5561,1.405,1111122 
DISL,ioos:station:DISL:PPTA:1,2017-12-07T04:30:00Z,30.2791,-87.5561,1.389,1111122 
DISL,ioos:station:DISL:PPTA:1,2017-12-07T05:30:00Z,30.2791,-87.5561,1.425,1111122 
DISL,ioos:station:DISL:PPTA:1,2017-12-07T06:30:00Z,30.2791,-87.5561,1.419,1111122 
DISL,ioos:station:DISL:PPTA:1,2017-12-07T07:30:00Z,30.2791,-87.5561,1.435,1111122 
DISL,ioos:station:DISL:PPTA:1,2017-12-07T08:30:00Z,30.2791,-87.5561,1.331,1111122 
DISL,ioos:station:DISL:PPTA:1,2017-12-07T09:30:00Z,30.2791,-87.5561,1.284,1111122 
DISL,ioos:station:DISL:PPTA:1,2017-12-07T10:30:00Z,30.2791,-87.5561,1.258,1111122 
DISL,ioos:station:DISL:PPTA:1,2017-12-07T11:30:00Z,30.2791,-87.5561,1.224,1111122 
DISL,ioos:station:DISL:PPTA:1,2017-12-07T12:30:00Z,30.2791,-87.5561,1.194,1111122 
DISL,ioos:station:DISL:PPTA:1,2017-12-07T13:30:00Z,30.2791,-87.5561,1.139,1111122 
DISL,ioos:station:DISL:PPTA:1,2017-12-07T14:30:00Z,30.2791,-87.5561,1.1,1111122 
DISL,ioos:station:DISL:PPTA:1,2017-12-07T15:30:00Z,30.2791,-87.5561,1.089,1111122 
DISL,ioos:station:DISL:PPTA:1,2017-12-07T16:30:00Z,30.2791,-87.5561,1.066,1111122 
DISL,ioos:station:DISL:PPTA:1,2017-12-07T17:30:00Z,30.2791,-87.5561,1.086,1111122 
DISL,ioos:station:DISL:PPTA:1,2017-12-07T18:30:00Z,30.2791,-87.5561,1.113,1111122 
DISL,ioos:station:DISL:PPTA:1,2017-12-07T19:30:00Z,30.2791,-87.5561,1.095,1111122 
DISL,ioos:station:DISL:PPTA:1,2017-12-07T20:00:00Z,30.2791,-87.5561,1.076,1111122 
DISL,ioos:station:DISL:PPTA:1,2017-12-07T22:30:00Z,30.2791,-87.5561,1.187,1111122 
DISL,ioos:station:DISL:PPTA:1,2017-12-07T23:30:00Z,30.2791,-87.5561,1.193,1111122 
DISL,ioos:station:DISL:PPTA:1,2017-12-08T00:30:00Z,30.2791,-87.5561,1.246,1111122 
DISL,ioos:station:DISL:PPTA:1,2017-12-08T01:30:00Z,30.2791,-87.5561,1.313,1111122 
DISL,ioos:station:DISL:PPTA:1,2017-12-08T02:30:00Z,30.2791,-87.5561,1.342,1111122 
DISL,ioos:station:DISL:PPTA:1,2017-12-08T03:30:00Z,30.2791,-87.5561,1.368,1111122 
DISL,ioos:station:DISL:PPTA:1,2017-12-08T04:30:00Z,30.2791,-87.5561,1.393,1111122 
DISL,ioos:station:DISL:PPTA:1,2017-12-08T05:30:00Z,30.2791,-87.5561,1.42,1111122 
DISL,ioos:station:DISL:PPTA:1,2017-12-08T06:30:00Z,30.2791,-87.5561,1.447,1111122 
DISL,ioos:station:DISL:PPTA:1,2017-12-08T07:30:00Z,30.2791,-87.5561,1.399,1111122 
DISL,ioos:station:DISL:PPTA:1,2017-12-08T08:30:00Z,30.2791,-87.5561,1.424,1111122 
DISL,ioos:station:DISL:PPTA:1,2017-12-08T09:30:00Z,30.2791,-87.5561,1.388,1111122 
DISL,ioos:station:DISL:PPTA:1,2017-12-08T10:30:00Z,30.2791,-87.5561,1.349,1111122 
DISL,ioos:station:DISL:PPTA:1,2017-12-08T11:30:00Z,30.2791,-87.5561,1.31,1111122 
DISL,ioos:station:DISL:PPTA:1,2017-12-08T12:30:00Z,30.2791,-87.5561,1.275,1111122 
DISL,ioos:station:DISL:PPTA:1,2017-12-08T13:30:00Z,30.2791,-87.5561,1.255,1111122 
DISL,ioos:station:DISL:PPTA:1,2017-12-08T14:30:00Z,30.2791,-87.5561,1.175,1111122 
DISL,ioos:station:DISL:PPTA:1,2017-12-08T15:30:00Z,30.2791,-87.5561,1.161,1111122 
DISL,ioos:station:DISL:PPTA:1,2017-12-08T16:30:00Z,30.2791,-87.5561,1.16,1111122 
DISL,ioos:station:DISL:PPTA:1,2017-12-08T17:30:00Z,30.2791,-87.5561,1.19,1111122 
DISL,ioos:station:DISL:PPTA:1,2017-12-08T18:30:00Z,30.2791,-87.5561,1.187,1111122 
DISL,ioos:station:DISL:PPTA:1,2017-12-08T19:30:00Z,30.2791,-87.5561,1.125,1111122 
DISL,ioos:station:DISL:PPTA:1,2017-12-08T20:30:00Z,30.2791,-87.5561,1.199,1111122 
DISL,ioos:station:DISL:PPTA:1,2017-12-08T21:30:00Z,30.2791,-87.5561,1.188,1111122 
DISL,ioos:station:DISL:PPTA:1,2017-12-08T22:30:00Z,30.2791,-87.5561,1.24,1111122 
DISL,ioos:station:DISL:PPTA:1,2017-12-08T23:30:00Z,30.2791,-87.5561,1.188,1111122 
DISL,ioos:station:DISL:PPTA:1,2017-12-09T00:30:00Z,30.2791,-87.5561,1.22,1111122 
DISL,ioos:station:DISL:PPTA:1,2017-12-09T01:30:00Z,30.2791,-87.5561,1.293,1111122 
DISL,ioos:station:DISL:PPTA:1,2017-12-09T02:30:00Z,30.2791,-87.5561,1.325,1111122 
DISL,ioos:station:DISL:PPTA:1,2017-12-09T03:30:00Z,30.2791,-87.5561,1.279,1111122 
DISL,ioos:station:DISL:PPTA:1,2017-12-09T04:30:00Z,30.2791,-87.5561,1.346,1111122 
DISL,ioos:station:DISL:PPTA:1,2017-12-09T05:30:00Z,30.2791,-87.5561,1.372,1111122 
DISL,ioos:station:DISL:PPTA:1,2017-12-09T06:30:00Z,30.2791,-87.5561,1.294,1111122 
DISL,ioos:station:DISL:PPTA:1,2017-12-09T07:30:00Z,30.2791,-87.5561,1.327,1111122 
DISL,ioos:station:DISL:PPTA:1,2017-12-09T08:30:00Z,30.2791,-87.5561,1.357,1111122 
DISL,ioos:station:DISL:PPTA:1,2017-12-09T09:30:00Z,30.2791,-87.5561,1.315,1111122 
DISL,ioos:station:DISL:PPTA:1,2017-12-09T10:30:00Z,30.2791,-87.5561,1.232,1111122 
DISL,ioos:station:DISL:PPTA:1,2017-12-09T11:30:00Z,30.2791,-87.5561,1.198,1111122 
DISL,ioos:station:DISL:PPTA:1,2017-12-09T12:30:00Z,30.2791,-87.5561,1.171,1111122 
DISL,ioos:station:DISL:PPTA:1,2017-12-09T13:30:00Z,30.2791,-87.5561,1.152,1111122 
DISL,ioos:station:DISL:PPTA:1,2017-12-09T14:30:00Z,30.2791,-87.5561,1.088,1111122 
DISL,ioos:station:DISL:PPTA:1,2017-12-09T15:30:00Z,30.2791,-87.5561,1.059,1111122 
DISL,ioos:station:DISL:PPTA:1,2017-12-09T16:30:00Z,30.2791,-87.5561,1.064,1111122 
DISL,ioos:station:DISL:PPTA:1,2017-12-09T17:30:00Z,30.2791,-87.5561,1.055,1111122 
DISL,ioos:station:DISL:PPTA:1,2017-12-09T18:30:00Z,30.2791,-87.5561,1.059,1111122 
DISL,ioos:station:DISL:PPTA:1,2017-12-09T19:30:00Z,30.2791,-87.5561,1.001,1111122 
DISL,ioos:station:DISL:PPTA:1,2017-12-09T20:30:00Z,30.2791,-87.5561,1.026,1111122 
DISL,ioos:station:DISL:PPTA:1,2017-12-09T21:30:00Z,30.2791,-87.5561,1.036,1111122 
DISL,ioos:station:DISL:PPTA:1,2017-12-09T22:30:00Z,30.2791,-87.5561,1.035,1111122 
DISL,ioos:station:DISL:PPTA:1,2017-12-09T23:30:00Z,30.2791,-87.5561,1.04,1111122 
DISL,ioos:station:DISL:PPTA:1,2017-12-10T00:30:00Z,30.2791,-87.5561,1.045,1111122 
DISL,ioos:station:DISL:PPTA:1,2017-12-10T01:30:00Z,30.2791,-87.5561,1.021,1111122 
DISL,ioos:station:DISL:PPTA:1,2017-12-10T02:30:00Z,30.2791,-87.5561,1.031,1111122 
DISL,ioos:station:DISL:PPTA:1,2017-12-10T03:30:00Z,30.2791,-87.5561,1.011,1111122 
DISL,ioos:station:DISL:PPTA:1,2017-12-10T04:30:00Z,30.2791,-87.5561,1.044,1111122 
DISL,ioos:station:DISL:PPTA:1,2017-12-10T05:30:00Z,30.2791,-87.5561,1.038,1111122 
DISL,ioos:station:DISL:PPTA:1,2017-12-10T06:30:00Z,30.2791,-87.5561,1.051,1111122 
DISL,ioos:station:DISL:PPTA:1,2017-12-10T07:30:00Z,30.2791,-87.5561,1.015,1111122 
DISL,ioos:station:DISL:PPTA:1,2017-12-10T08:30:00Z,30.2791,-87.5561,1.017,1111122 
DISL,ioos:station:DISL:PPTA:1,2017-12-10T09:30:00Z,30.2791,-87.5561,1.023,1111122 
DISL,ioos:station:DISL:PPTA:1,2017-12-10T10:30:00Z,30.2791,-87.5561,0.999,1111122 
DISL,ioos:station:DISL:PPTA:1,2017-12-10T11:30:00Z,30.2791,-87.5561,1.004,1111122 
DISL,ioos:station:DISL:PPTA:1,2017-12-10T12:30:00Z,30.2791,-87.5561,0.98,1111122 
DISL,ioos:station:DISL:PPTA:1,2017-12-10T13:30:00Z,30.2791,-87.5561,0.942,1111122 
DISL,ioos:station:DISL:PPTA:1,2017-12-10T14:30:00Z,30.2791,-87.5561,0.934,1111122 
DISL,ioos:station:DISL:PPTA:1,2017-12-10T15:30:00Z,30.2791,-87.5561,0.938,1111122 
DISL,ioos:station:DISL:PPTA:1,2017-12-10T16:30:00Z,30.2791,-87.5561,0.92,1111122 
DISL,ioos:station:DISL:PPTA:1,2017-12-10T17:30:00Z,30.2791,-87.5561,0.923,1111122 
DISL,ioos:station:DISL:PPTA:1,2017-12-10T18:30:00Z,30.2791,-87.5561,0.933,1111122 
DISL,ioos:station:DISL:PPTA:1,2017-12-10T19:30:00Z,30.2791,-87.5561,0.932,1111122 
DISL,ioos:station:DISL:PPTA:1,2017-12-10T20:30:00Z,30.2791,-87.5561,0.939,1111122 
DISL,ioos:station:DISL:PPTA:1,2017-12-10T21:30:00Z,30.2791,-87.5561,0.943,1111122 
DISL,ioos:station:DISL:PPTA:1,2017-12-10T22:30:00Z,30.2791,-87.5561,0.955,1111122 
DISL,ioos:station:DISL:PPTA:1,2017-12-10T23:30:00Z,30.2791,-87.5561,0.974,1111122 
DISL,ioos:station:DISL:PPTA:1,2017-12-11T00:30:00Z,30.2791,-87.5561,0.999,1111122 
DISL,ioos:station:DISL:PPTA:1,2017-12-11T01:30:00Z,30.2791,-87.5561,1.012,1111122 
DISL,ioos:station:DISL:PPTA:1,2017-12-11T02:30:00Z,30.2791,-87.5561,1.02,1111122 
DISL,ioos:station:DISL:PPTA:1,2017-12-11T03:30:00Z,30.2791,-87.5561,1.009,1111122 
DISL,ioos:station:DISL:PPTA:1,2017-12-11T04:30:00Z,30.2791,-87.5561,1.005,1111122 
DISL,ioos:station:DISL:PPTA:1,2017-12-11T05:30:00Z,30.2791,-87.5561,1.006,1111122 
DISL,ioos:station:DISL:PPTA:1,2017-12-11T06:30:00Z,30.2791,-87.5561,1.018,1111122 
DISL,ioos:station:DISL:PPTA:1,2017-12-11T07:30:00Z,30.2791,-87.5561,1.005,1111122 
DISL,ioos:station:DISL:PPTA:1,2017-12-11T08:30:00Z,30.2791,-87.5561,0.99,1111122 
DISL,ioos:station:DISL:PPTA:1,2017-12-11T09:00:00Z,30.2791,-87.5561,0.995,1111122 
DISL,ioos:station:DISL:PPTA:1,2017-12-11T10:30:00Z,30.2791,-87.5561,0.979,1111122 
DISL,ioos:station:DISL:PPTA:1,2017-12-11T11:30:00Z,30.2791,-87.5561,0.981,1111122 
DISL,ioos:station:DISL:PPTA:1,2017-12-11T12:30:00Z,30.2791,-87.5561,0.972,1111122 
DISL,ioos:station:DISL:PPTA:1,2017-12-11T13:30:00Z,30.2791,-87.5561,0.957,1111122 
DISL,ioos:station:DISL:PPTA:1,2017-12-11T14:30:00Z,30.2791,-87.5561,0.945,1111122 
DISL,ioos:station:DISL:PPTA:1,2017-12-11T15:30:00Z,30.2791,-87.5561,0.941,1111122 
DISL,ioos:station:DISL:PPTA:1,2017-12-11T16:30:00Z,30.2791,-87.5561,0.944,1111122 
DISL,ioos:station:DISL:PPTA:1,2017-12-11T17:00:00Z,30.2791,-87.5561,0.944,1111122 
DISL,ioos:station:DISL:PPTA:1,2017-12-11T18:30:00Z,30.2791,-87.5561,0.973,1111122 
DISL,ioos:station:DISL:PPTA:1,2017-12-11T20:30:00Z,30.2791,-87.5561,0.998,1111122 
DISL,ioos:station:DISL:PPTA:1,2017-12-11T21:30:00Z,30.2791,-87.5561,1.012,1111122 
DISL,ioos:station:DISL:PPTA:1,2017-12-11T22:30:00Z,30.2791,-87.5561,1.032,1111122 
DISL,ioos:station:DISL:PPTA:1,2017-12-11T23:30:00Z,30.2791,-87.5561,1.079,1111122 
DISL,ioos:station:DISL:PPTA:1,2017-12-12T00:30:00Z,30.2791,-87.5561,1.097,1111122 
DISL,ioos:station:DISL:PPTA:1,2017-12-12T01:30:00Z,30.2791,-87.5561,1.094,1111122 
DISL,ioos:station:DISL:PPTA:1,2017-12-12T02:30:00Z,30.2791,-87.5561,1.104,1111122 
DISL,ioos:station:DISL:PPTA:1,2017-12-12T03:30:00Z,30.2791,-87.5561,1.097,1111122 
DISL,ioos:station:DISL:PPTA:1,2017-12-12T04:30:00Z,30.2791,-87.5561,1.095,1111122 
DISL,ioos:station:DISL:PPTA:1,2017-12-12T05:30:00Z,30.2791,-87.5561,1.093,1111122 
DISL,ioos:station:DISL:PPTA:1,2017-12-12T06:30:00Z,30.2791,-87.5561,1.087,1111122 
DISL,ioos:station:DISL:PPTA:1,2017-12-12T07:30:00Z,30.2791,-87.5561,1.1,1111122 
DISL,ioos:station:DISL:PPTA:1,2017-12-12T08:30:00Z,30.2791,-87.5561,1.084,1111122 
DISL,ioos:station:DISL:PPTA:1,2017-12-12T09:30:00Z,30.2791,-87.5561,1.061,1111122 
DISL,ioos:station:DISL:PPTA:1,2017-12-12T10:30:00Z,30.2791,-87.5561,1.065,1111122 
DISL,ioos:station:DISL:PPTA:1,2017-12-12T11:30:00Z,30.2791,-87.5561,1.069,1111122 
DISL,ioos:station:DISL:PPTA:1,2017-12-12T12:30:00Z,30.2791,-87.5561,1.067,1111122 
DISL,ioos:station:DISL:PPTA:1,2017-12-12T13:30:00Z,30.2791,-87.5561,1.05,1111122 
DISL,ioos:station:DISL:PPTA:1,2017-12-12T14:30:00Z,30.2791,-87.5561,1.045,1111122 
DISL,ioos:station:DISL:PPTA:1,2017-12-12T15:30:00Z,30.2791,-87.5561,1.068,1111122 
DISL,ioos:station:DISL:PPTA:1,2017-12-12T16:30:00Z,30.2791,-87.5561,1.065,1111122 
DISL,ioos:station:DISL:PPTA:1,2017-12-12T17:30:00Z,30.2791,-87.5561,1.071,1111122 
DISL,ioos:station:DISL:PPTA:1,2017-12-12T18:30:00Z,30.2791,-87.5561,1.105,1111122 
DISL,ioos:station:DISL:PPTA:1,2017-12-12T19:30:00Z,30.2791,-87.5561,1.093,1111122 
DISL,ioos:station:DISL:PPTA:1,2017-12-12T20:30:00Z,30.2791,-87.5561,1.103,1111122 
DISL,ioos:station:DISL:PPTA:1,2017-12-12T21:30:00Z,30.2791,-87.5561,1.094,1111122 
DISL,ioos:station:DISL:PPTA:1,2017-12-12T22:30:00Z,30.2791,-87.5561,1.087,1111122 
DISL,ioos:station:DISL:PPTA:1,2017-12-13T09:30:00Z,30.2791,-87.5561,0.994,1111122 
DISL,ioos:station:DISL:PPTA:1,2017-12-13T10:30:00Z,30.2791,-87.5561,0.972,1111122 
DISL,ioos:station:DISL:PPTA:1,2017-12-13T11:30:00Z,30.2791,-87.5561,0.955,1111122 